Location: Armidale
(30.5016°S, 151.6662°E)
Time: 14:51:39
(UTC+10:00)

BEESAT 3 - Pass Details

Date: 01 August 2021
Orbit: 483 x 509 km, 64.9° (Epoch: 26 September)

Event Time Altitude Azimuth Distance (km) Brightness Sun altitude
Rises 17:58:40 0° 332° (NNW) 2,605 ? -8.8°
Reaches altitude 10° 18:00:49 10° 332° (NNW) 1,724 ? -9.2°
Maximum altitude 18:04:41 83° 245° (WSW) 519 ? -10.0°
Drops below altitude 10° 18:08:34 10° 155° (SSE) 1,733 ? -10.8°
Enters shadow 18:09:31 - 154° (SSE) 2,119 ? -11.0°
